{"data":{"norad_id":62793,"intl_designator":"2025-016J","name":"QIANFAN-63","alt_names":[],"object_type":"PAYLOAD","status":"ACTIVE","operator":null,"country":"PRC","launch_date":"2025-01-23","launch_site_code":"TAISC","launch_vehicle":null,"mission":null,"orbit_class":"UNKNOWN","rcs_meters":null,"size_class":null,"mass_kg":null,"dimensions":null,"purposes":[],"wikipedia_slug":null,"has_3d_model":false,"image_url":null,"decayed_at":null,"tle_current":{"epoch":"2026-09-22T20:57:03.751776Z","epoch_age_seconds":113054,"freshness":"FRESH","line1":"1 62793U 25016J   26265.87296009  .00000056  00000+0  67953-4 0  9997","line2":"2 62793  88.9673  73.5571 0014488 244.8970 115.0678 13.51023193 85635","mean_motion":13.51023193,"eccentricity":0.0014488,"inclination_deg":88.9673,"raan_deg":73.5571,"arg_perigee_deg":244.897,"mean_anomaly_deg":115.0678,"bstar":6.7953e-5,"rev_number":8563,"period_min":106.58588301526,"perigee_km":1057.7076774333,"apogee_km":1079.2850422568,"semimajor_km":7446.633359845,"source":"CELESTRAK","updated_at":"2026-09-23T09:00:21.635441Z"}}}